owner,sensor,date,latitude,longitude,vertical_datum,sea_water_practical_salinity,qcFlag 
TABS,ioos:station:wmo:42050:1,2012-07-01T00:00:00Z,28.8425,-94.2433,2.0,30.8866,11111222 
TABS,ioos:station:wmo:42050:1,2012-07-01T00:30:00Z,28.8425,-94.2433,2.0,30.907,11111222 
TABS,ioos:station:wmo:42050:1,2012-07-01T01:00:00Z,28.8425,-94.2433,2.0,30.9442,11111222 
TABS,ioos:station:wmo:42050:1,2012-07-01T01:30:00Z,28.8425,-94.2433,2.0,30.9981,11111222 
TABS,ioos:station:wmo:42050:1,2012-07-01T02:00:00Z,28.8425,-94.2433,2.0,31.0408,11111222 
TABS,ioos:station:wmo:42050:1,2012-07-01T02:30:00Z,28.8425,-94.2433,2.0,31.0707,11111222 
TABS,ioos:station:wmo:42050:1,2012-07-01T03:00:00Z,28.8425,-94.2433,2.0,31.0764,11111222 
TABS,ioos:station:wmo:42050:1,2012-07-01T03:30:00Z,28.8425,-94.2433,2.0,31.0999,11111222 
TABS,ioos:station:wmo:42050:1,2012-07-01T04:00:00Z,28.8425,-94.2433,2.0,31.1177,11111222 
TABS,ioos:station:wmo:42050:1,2012-07-01T04:30:00Z,28.8425,-94.2433,2.0,31.1348,11111222 
TABS,ioos:station:wmo:42050:1,2012-07-01T05:00:00Z,28.8425,-94.2433,2.0,31.1522,11111222 
TABS,ioos:station:wmo:42050:1,2012-07-01T05:30:00Z,28.8425,-94.2433,2.0,31.1536,11111222 
TABS,ioos:station:wmo:42050:1,2012-07-01T06:00:00Z,28.8425,-94.2433,2.0,31.1727,11111222 
TABS,ioos:station:wmo:42050:1,2012-07-01T06:30:00Z,28.8425,-94.2433,2.0,31.1757,11111222 
TABS,ioos:station:wmo:42050:1,2012-07-01T07:00:00Z,28.8425,-94.2433,2.0,31.193,11111222 
TABS,ioos:station:wmo:42050:1,2012-07-01T07:30:00Z,28.8425,-94.2433,2.0,31.2036,11111222 
TABS,ioos:station:wmo:42050:1,2012-07-01T08:00:00Z,28.8425,-94.2433,2.0,31.1881,11111222 
TABS,ioos:station:wmo:42050:1,2012-07-01T08:30:00Z,28.8425,-94.2433,2.0,31.1844,11111222 
TABS,ioos:station:wmo:42050:1,2012-07-01T09:00:00Z,28.8425,-94.2433,2.0,31.1378,11111222 
TABS,ioos:station:wmo:42050:1,2012-07-01T09:30:00Z,28.8425,-94.2433,2.0,31.1077,11111222 
TABS,ioos:station:wmo:42050:1,2012-07-01T10:00:00Z,28.8425,-94.2433,2.0,31.0839,11111222 
TABS,ioos:station:wmo:42050:1,2012-07-01T10:30:00Z,28.8425,-94.2433,2.0,31.0627,11111222 
TABS,ioos:station:wmo:42050:1,2012-07-01T11:00:00Z,28.8425,-94.2433,2.0,31.0553,11111222 
TABS,ioos:station:wmo:42050:1,2012-07-01T11:30:00Z,28.8425,-94.2433,2.0,31.0597,11111222 
TABS,ioos:station:wmo:42050:1,2012-07-01T12:00:00Z,28.8425,-94.2433,2.0,31.0557,11111222 
TABS,ioos:station:wmo:42050:1,2012-07-01T12:30:00Z,28.8425,-94.2433,2.0,31.0485,11111222 
TABS,ioos:station:wmo:42050:1,2012-07-01T13:00:00Z,28.8425,-94.2433,2.0,31.0469,11111222 
TABS,ioos:station:wmo:42050:1,2012-07-01T13:30:00Z,28.8425,-94.2433,2.0,31.0432,11111222 
TABS,ioos:station:wmo:42050:1,2012-07-01T14:00:00Z,28.8425,-94.2433,2.0,31.0427,11111222 
TABS,ioos:station:wmo:42050:1,2012-07-01T14:30:00Z,28.8425,-94.2433,2.0,31.0387,11111222 
TABS,ioos:station:wmo:42050:1,2012-07-01T15:00:00Z,28.8425,-94.2433,2.0,31.0374,11111222 
TABS,ioos:station:wmo:42050:1,2012-07-01T15:30:00Z,28.8425,-94.2433,2.0,31.0395,11111222 
TABS,ioos:station:wmo:42050:1,2012-07-01T16:00:00Z,28.8425,-94.2433,2.0,31.0398,11111222 
TABS,ioos:station:wmo:42050:1,2012-07-01T16:30:00Z,28.8425,-94.2433,2.0,31.0397,11111222 
TABS,ioos:station:wmo:42050:1,2012-07-01T17:00:00Z,28.8425,-94.2433,2.0,31.0404,11111222 
TABS,ioos:station:wmo:42050:1,2012-07-01T17:30:00Z,28.8425,-94.2433,2.0,31.0446,11111222 
TABS,ioos:station:wmo:42050:1,2012-07-01T18:00:00Z,28.8425,-94.2433,2.0,31.0477,11111222 
TABS,ioos:station:wmo:42050:1,2012-07-01T18:30:00Z,28.8425,-94.2433,2.0,31.0498,11111222 
TABS,ioos:station:wmo:42050:1,2012-07-01T19:00:00Z,28.8425,-94.2433,2.0,31.0541,11111222 
TABS,ioos:station:wmo:42050:1,2012-07-01T19:30:00Z,28.8425,-94.2433,2.0,31.057,11111222 
TABS,ioos:station:wmo:42050:1,2012-07-01T20:00:00Z,28.8425,-94.2433,2.0,31.0649,11111222 
TABS,ioos:station:wmo:42050:1,2012-07-01T20:30:00Z,28.8425,-94.2433,2.0,31.0587,11111222 
TABS,ioos:station:wmo:42050:1,2012-07-01T21:00:00Z,28.8425,-94.2433,2.0,31.0595,11111222 
TABS,ioos:station:wmo:42050:1,2012-07-01T21:30:00Z,28.8425,-94.2433,2.0,31.0546,11111222 
TABS,ioos:station:wmo:42050:1,2012-07-01T22:00:00Z,28.8425,-94.2433,2.0,31.05,11111222 
TABS,ioos:station:wmo:42050:1,2012-07-01T22:30:00Z,28.8425,-94.2433,2.0,31.0611,11111222 
TABS,ioos:station:wmo:42050:1,2012-07-01T23:00:00Z,28.8425,-94.2433,2.0,31.0763,11111222 
TABS,ioos:station:wmo:42050:1,2012-07-01T23:30:00Z,28.8425,-94.2433,2.0,31.0923,11111222 
TABS,ioos:station:wmo:42050:1,2012-07-02T00:00:00Z,28.8425,-94.2433,2.0,31.1125,11111222 
TABS,ioos:station:wmo:42050:1,2012-07-02T00:30:00Z,28.8425,-94.2433,2.0,31.1207,11111222 
TABS,ioos:station:wmo:42050:1,2012-07-02T01:00:00Z,28.8425,-94.2433,2.0,31.1423,11111222 
TABS,ioos:station:wmo:42050:1,2012-07-02T01:30:00Z,28.8425,-94.2433,2.0,31.166,11111222 
TABS,ioos:station:wmo:42050:1,2012-07-02T02:00:00Z,28.8425,-94.2433,2.0,31.185,11111222 
TABS,ioos:station:wmo:42050:1,2012-07-02T02:30:00Z,28.8425,-94.2433,2.0,31.2014,11111222 
TABS,ioos:station:wmo:42050:1,2012-07-02T03:00:00Z,28.8425,-94.2433,2.0,31.2309,11111222 
TABS,ioos:station:wmo:42050:1,2012-07-02T03:30:00Z,28.8425,-94.2433,2.0,31.249,11111222 
TABS,ioos:station:wmo:42050:1,2012-07-02T04:00:00Z,28.8425,-94.2433,2.0,31.2718,11111222 
TABS,ioos:station:wmo:42050:1,2012-07-02T04:30:00Z,28.8425,-94.2433,2.0,31.2684,11111222 
TABS,ioos:station:wmo:42050:1,2012-07-02T05:00:00Z,28.8425,-94.2433,2.0,31.2606,11111222 
TABS,ioos:station:wmo:42050:1,2012-07-02T05:30:00Z,28.8425,-94.2433,2.0,31.2441,11111222 
TABS,ioos:station:wmo:42050:1,2012-07-02T06:00:00Z,28.8425,-94.2433,2.0,31.2266,11111222 
TABS,ioos:station:wmo:42050:1,2012-07-02T06:30:00Z,28.8425,-94.2433,2.0,31.2086,11111222 
TABS,ioos:station:wmo:42050:1,2012-07-02T07:00:00Z,28.8425,-94.2433,2.0,31.2047,11111222 
TABS,ioos:station:wmo:42050:1,2012-07-02T07:30:00Z,28.8425,-94.2433,2.0,31.1957,11111222 
TABS,ioos:station:wmo:42050:1,2012-07-02T08:00:00Z,28.8425,-94.2433,2.0,31.1918,11111222 
TABS,ioos:station:wmo:42050:1,2012-07-02T08:30:00Z,28.8425,-94.2433,2.0,31.1895,11111222 
TABS,ioos:station:wmo:42050:1,2012-07-02T09:00:00Z,28.8425,-94.2433,2.0,31.1829,11111222 
TABS,ioos:station:wmo:42050:1,2012-07-02T09:30:00Z,28.8425,-94.2433,2.0,31.1851,11111222 
TABS,ioos:station:wmo:42050:1,2012-07-02T10:00:00Z,28.8425,-94.2433,2.0,31.1746,11111222 
TABS,ioos:station:wmo:42050:1,2012-07-02T10:30:00Z,28.8425,-94.2433,2.0,31.1657,11111222 
TABS,ioos:station:wmo:42050:1,2012-07-02T11:00:00Z,28.8425,-94.2433,2.0,31.1633,11111222 
TABS,ioos:station:wmo:42050:1,2012-07-02T11:30:00Z,28.8425,-94.2433,2.0,31.1521,11111222 
TABS,ioos:station:wmo:42050:1,2012-07-02T12:00:00Z,28.8425,-94.2433,2.0,31.1446,11111222 
TABS,ioos:station:wmo:42050:1,2012-07-02T12:30:00Z,28.8425,-94.2433,2.0,31.1386,11111222 
TABS,ioos:station:wmo:42050:1,2012-07-02T13:00:00Z,28.8425,-94.2433,2.0,31.1422,11111222 
TABS,ioos:station:wmo:42050:1,2012-07-02T13:30:00Z,28.8425,-94.2433,2.0,31.1515,11111222 
TABS,ioos:station:wmo:42050:1,2012-07-02T14:00:00Z,28.8425,-94.2433,2.0,31.1613,11111222 
TABS,ioos:station:wmo:42050:1,2012-07-02T14:30:00Z,28.8425,-94.2433,2.0,31.1678,11111222 
TABS,ioos:station:wmo:42050:1,2012-07-02T15:00:00Z,28.8425,-94.2433,2.0,31.1886,11111222 
TABS,ioos:station:wmo:42050:1,2012-07-02T15:30:00Z,28.8425,-94.2433,2.0,31.2019,11111222 
TABS,ioos:station:wmo:42050:1,2012-07-02T16:00:00Z,28.8425,-94.2433,2.0,31.2118,11111222 
TABS,ioos:station:wmo:42050:1,2012-07-02T16:30:00Z,28.8425,-94.2433,2.0,31.2153,11111222 
TABS,ioos:station:wmo:42050:1,2012-07-02T17:00:00Z,28.8425,-94.2433,2.0,31.2257,11111222 
TABS,ioos:station:wmo:42050:1,2012-07-02T17:30:00Z,28.8425,-94.2433,2.0,31.2211,11111222 
TABS,ioos:station:wmo:42050:1,2012-07-02T18:00:00Z,28.8425,-94.2433,2.0,31.2146,11111222 
TABS,ioos:station:wmo:42050:1,2012-07-02T18:30:00Z,28.8425,-94.2433,2.0,31.2152,11111222 
TABS,ioos:station:wmo:42050:1,2012-07-02T19:00:00Z,28.8425,-94.2433,2.0,31.2101,11111222 
TABS,ioos:station:wmo:42050:1,2012-07-02T19:30:00Z,28.8425,-94.2433,2.0,31.2016,11111222 
TABS,ioos:station:wmo:42050:1,2012-07-02T20:00:00Z,28.8425,-94.2433,2.0,31.1858,11111222 
TABS,ioos:station:wmo:42050:1,2012-07-02T20:30:00Z,28.8425,-94.2433,2.0,31.1829,11111222 
TABS,ioos:station:wmo:42050:1,2012-07-02T21:00:00Z,28.8425,-94.2433,2.0,31.1792,11111222 
TABS,ioos:station:wmo:42050:1,2012-07-02T21:30:00Z,28.8425,-94.2433,2.0,31.1845,11111222 
TABS,ioos:station:wmo:42050:1,2012-07-02T22:00:00Z,28.8425,-94.2433,2.0,31.1896,11111222 
TABS,ioos:station:wmo:42050:1,2012-07-02T22:30:00Z,28.8425,-94.2433,2.0,31.1958,11111222 
TABS,ioos:station:wmo:42050:1,2012-07-02T23:00:00Z,28.8425,-94.2433,2.0,31.1931,11111222 
TABS,ioos:station:wmo:42050:1,2012-07-02T23:30:00Z,28.8425,-94.2433,2.0,31.1958,11111222 
TABS,ioos:station:wmo:42050:1,2012-07-03T00:00:00Z,28.8425,-94.2433,2.0,31.2001,11111222 
TABS,ioos:station:wmo:42050:1,2012-07-03T00:30:00Z,28.8425,-94.2433,2.0,31.2112,11111222 
TABS,ioos:station:wmo:42050:1,2012-07-03T01:00:00Z,28.8425,-94.2433,2.0,31.2221,11111222 
TABS,ioos:station:wmo:42050:1,2012-07-03T01:30:00Z,28.8425,-94.2433,2.0,31.2365,11111222 
TABS,ioos:station:wmo:42050:1,2012-07-03T02:00:00Z,28.8425,-94.2433,2.0,31.2538,11111222 
TABS,ioos:station:wmo:42050:1,2012-07-03T02:30:00Z,28.8425,-94.2433,2.0,31.2767,11111222 
TABS,ioos:station:wmo:42050:1,2012-07-03T03:00:00Z,28.8425,-94.2433,2.0,31.2863,11111222 
TABS,ioos:station:wmo:42050:1,2012-07-03T03:30:00Z,28.8425,-94.2433,2.0,31.2899,11111222 
TABS,ioos:station:wmo:42050:1,2012-07-03T04:00:00Z,28.8425,-94.2433,2.0,31.3022,11111222 
TABS,ioos:station:wmo:42050:1,2012-07-03T04:30:00Z,28.8425,-94.2433,2.0,31.3211,11111222 
TABS,ioos:station:wmo:42050:1,2012-07-03T05:00:00Z,28.8425,-94.2433,2.0,31.3368,11111222 
TABS,ioos:station:wmo:42050:1,2012-07-03T05:30:00Z,28.8425,-94.2433,2.0,31.3517,11111222 
TABS,ioos:station:wmo:42050:1,2012-07-03T06:00:00Z,28.8425,-94.2433,2.0,31.3638,11111222 
TABS,ioos:station:wmo:42050:1,2012-07-03T06:30:00Z,28.8425,-94.2433,2.0,31.3566,11111222 
TABS,ioos:station:wmo:42050:1,2012-07-03T07:00:00Z,28.8425,-94.2433,2.0,31.3339,11111222 
TABS,ioos:station:wmo:42050:1,2012-07-03T07:30:00Z,28.8425,-94.2433,2.0,31.3343,11111222 
TABS,ioos:station:wmo:42050:1,2012-07-03T08:00:00Z,28.8425,-94.2433,2.0,31.3238,11111222 
TABS,ioos:station:wmo:42050:1,2012-07-03T08:30:00Z,28.8425,-94.2433,2.0,31.2978,11111222 
TABS,ioos:station:wmo:42050:1,2012-07-03T09:00:00Z,28.8425,-94.2433,2.0,31.3127,11111222 
TABS,ioos:station:wmo:42050:1,2012-07-03T09:30:00Z,28.8425,-94.2433,2.0,31.3075,11111222 
TABS,ioos:station:wmo:42050:1,2012-07-03T10:00:00Z,28.8425,-94.2433,2.0,31.3024,11111222 
TABS,ioos:station:wmo:42050:1,2012-07-03T10:30:00Z,28.8425,-94.2433,2.0,31.2907,11111222 
TABS,ioos:station:wmo:42050:1,2012-07-03T11:00:00Z,28.8425,-94.2433,2.0,31.2829,11111222 
TABS,ioos:station:wmo:42050:1,2012-07-03T11:30:00Z,28.8425,-94.2433,2.0,31.2849,11111222 
TABS,ioos:station:wmo:42050:1,2012-07-03T12:00:00Z,28.8425,-94.2433,2.0,31.2778,11111222 
TABS,ioos:station:wmo:42050:1,2012-07-03T12:30:00Z,28.8425,-94.2433,2.0,31.2829,11111222 
TABS,ioos:station:wmo:42050:1,2012-07-03T13:00:00Z,28.8425,-94.2433,2.0,31.2841,11111222 
TABS,ioos:station:wmo:42050:1,2012-07-03T13:30:00Z,28.8425,-94.2433,2.0,31.2841,11111222 
TABS,ioos:station:wmo:42050:1,2012-07-03T14:00:00Z,28.8425,-94.2433,2.0,31.2866,11111222 
TABS,ioos:station:wmo:42050:1,2012-07-03T14:30:00Z,28.8425,-94.2433,2.0,31.2917,11111222 
TABS,ioos:station:wmo:42050:1,2012-07-03T15:00:00Z,28.8425,-94.2433,2.0,31.296,11111222 
TABS,ioos:station:wmo:42050:1,2012-07-03T15:30:00Z,28.8425,-94.2433,2.0,31.3031,11111222 
TABS,ioos:station:wmo:42050:1,2012-07-03T16:00:00Z,28.8425,-94.2433,2.0,31.293,11111222 
TABS,ioos:station:wmo:42050:1,2012-07-03T16:30:00Z,28.8425,-94.2433,2.0,31.2586,11111222 
TABS,ioos:station:wmo:42050:1,2012-07-03T17:00:00Z,28.8425,-94.2433,2.0,31.2582,11111222 
TABS,ioos:station:wmo:42050:1,2012-07-03T17:30:00Z,28.8425,-94.2433,2.0,31.2802,11111222 
TABS,ioos:station:wmo:42050:1,2012-07-03T18:00:00Z,28.8425,-94.2433,2.0,31.2578,11111222 
TABS,ioos:station:wmo:42050:1,2012-07-03T18:30:00Z,28.8425,-94.2433,2.0,31.2546,11111222 
TABS,ioos:station:wmo:42050:1,2012-07-03T19:00:00Z,28.8425,-94.2433,2.0,31.2948,11111222 
TABS,ioos:station:wmo:42050:1,2012-07-03T19:30:00Z,28.8425,-94.2433,2.0,31.2709,11111222 
TABS,ioos:station:wmo:42050:1,2012-07-03T20:00:00Z,28.8425,-94.2433,2.0,31.2734,11111222 
TABS,ioos:station:wmo:42050:1,2012-07-03T20:30:00Z,28.8425,-94.2433,2.0,31.279,11111222 
TABS,ioos:station:wmo:42050:1,2012-07-03T21:00:00Z,28.8425,-94.2433,2.0,31.2682,11111222 
TABS,ioos:station:wmo:42050:1,2012-07-03T21:30:00Z,28.8425,-94.2433,2.0,31.2689,11111222 
TABS,ioos:station:wmo:42050:1,2012-07-03T22:00:00Z,28.8425,-94.2433,2.0,31.27,11111222 
TABS,ioos:station:wmo:42050:1,2012-07-03T22:30:00Z,28.8425,-94.2433,2.0,31.2752,11111222 
TABS,ioos:station:wmo:42050:1,2012-07-03T23:00:00Z,28.8425,-94.2433,2.0,31.2566,11111222 
TABS,ioos:station:wmo:42050:1,2012-07-03T23:30:00Z,28.8425,-94.2433,2.0,31.2474,11111222 
TABS,ioos:station:wmo:42050:1,2012-07-04T00:00:00Z,28.8425,-94.2433,2.0,31.2292,11111222 
TABS,ioos:station:wmo:42050:1,2012-07-04T00:30:00Z,28.8425,-94.2433,2.0,31.227,11111222 
TABS,ioos:station:wmo:42050:1,2012-07-04T01:00:00Z,28.8425,-94.2433,2.0,31.224,11111222 
TABS,ioos:station:wmo:42050:1,2012-07-04T01:30:00Z,28.8425,-94.2433,2.0,31.2203,11111222 
TABS,ioos:station:wmo:42050:1,2012-07-04T02:00:00Z,28.8425,-94.2433,2.0,31.2195,11111222 
TABS,ioos:station:wmo:42050:1,2012-07-04T02:30:00Z,28.8425,-94.2433,2.0,31.2182,11111222 
TABS,ioos:station:wmo:42050:1,2012-07-04T03:00:00Z,28.8425,-94.2433,2.0,31.2175,11111222 
TABS,ioos:station:wmo:42050:1,2012-07-04T03:30:00Z,28.8425,-94.2433,2.0,31.2285,11111222 
TABS,ioos:station:wmo:42050:1,2012-07-04T04:00:00Z,28.8425,-94.2433,2.0,31.2497,11111222 
TABS,ioos:station:wmo:42050:1,2012-07-04T04:30:00Z,28.8425,-94.2433,2.0,31.2724,11111222 
TABS,ioos:station:wmo:42050:1,2012-07-04T05:00:00Z,28.8425,-94.2433,2.0,31.2834,11111222 
TABS,ioos:station:wmo:42050:1,2012-07-04T05:30:00Z,28.8425,-94.2433,2.0,31.307,11111222 
TABS,ioos:station:wmo:42050:1,2012-07-04T06:00:00Z,28.8425,-94.2433,2.0,31.3199,11111222 
TABS,ioos:station:wmo:42050:1,2012-07-04T06:30:00Z,28.8425,-94.2433,2.0,31.3275,11111222 
TABS,ioos:station:wmo:42050:1,2012-07-04T07:00:00Z,28.8425,-94.2433,2.0,31.3316,11111222 
TABS,ioos:station:wmo:42050:1,2012-07-04T07:30:00Z,28.8425,-94.2433,2.0,31.3465,11111222 
TABS,ioos:station:wmo:42050:1,2012-07-04T08:00:00Z,28.8425,-94.2433,2.0,31.3538,11111222 
TABS,ioos:station:wmo:42050:1,2012-07-04T08:30:00Z,28.8425,-94.2433,2.0,31.359,11111222 
TABS,ioos:station:wmo:42050:1,2012-07-04T09:00:00Z,28.8425,-94.2433,2.0,31.3601,11111222 
TABS,ioos:station:wmo:42050:1,2012-07-04T09:30:00Z,28.8425,-94.2433,2.0,31.367,11111222 
TABS,ioos:station:wmo:42050:1,2012-07-04T10:00:00Z,28.8425,-94.2433,2.0,31.3618,11111222 
TABS,ioos:station:wmo:42050:1,2012-07-04T10:30:00Z,28.8425,-94.2433,2.0,31.3558,11111222 
TABS,ioos:station:wmo:42050:1,2012-07-04T11:00:00Z,28.8425,-94.2433,2.0,31.3542,11111222 
TABS,ioos:station:wmo:42050:1,2012-07-04T11:30:00Z,28.8425,-94.2433,2.0,31.3499,11111222 
TABS,ioos:station:wmo:42050:1,2012-07-04T12:00:00Z,28.8425,-94.2433,2.0,31.3487,11111222 
TABS,ioos:station:wmo:42050:1,2012-07-04T12:30:00Z,28.8425,-94.2433,2.0,31.348,11111222 
TABS,ioos:station:wmo:42050:1,2012-07-04T13:00:00Z,28.8425,-94.2433,2.0,31.3453,11111222 
TABS,ioos:station:wmo:42050:1,2012-07-04T13:30:00Z,28.8425,-94.2433,2.0,31.3287,11111222 
TABS,ioos:station:wmo:42050:1,2012-07-04T14:00:00Z,28.8425,-94.2433,2.0,31.3233,11111222 
TABS,ioos:station:wmo:42050:1,2012-07-04T14:30:00Z,28.8425,-94.2433,2.0,31.3133,11111222 
TABS,ioos:station:wmo:42050:1,2012-07-04T15:00:00Z,28.8425,-94.2433,2.0,31.3183,11111222 
TABS,ioos:station:wmo:42050:1,2012-07-04T15:30:00Z,28.8425,-94.2433,2.0,31.3274,11111222 
TABS,ioos:station:wmo:42050:1,2012-07-04T16:00:00Z,28.8425,-94.2433,2.0,31.3492,11111222 
TABS,ioos:station:wmo:42050:1,2012-07-04T16:30:00Z,28.8425,-94.2433,2.0,31.3471,11111222 
TABS,ioos:station:wmo:42050:1,2012-07-04T17:00:00Z,28.8425,-94.2433,2.0,31.3239,11111222 
TABS,ioos:station:wmo:42050:1,2012-07-04T17:30:00Z,28.8425,-94.2433,2.0,31.3309,11111222 
TABS,ioos:station:wmo:42050:1,2012-07-04T18:00:00Z,28.8425,-94.2433,2.0,31.3403,11111222 
TABS,ioos:station:wmo:42050:1,2012-07-04T18:30:00Z,28.8425,-94.2433,2.0,31.3411,11111222 
TABS,ioos:station:wmo:42050:1,2012-07-04T19:00:00Z,28.8425,-94.2433,2.0,31.3409,11111222 
TABS,ioos:station:wmo:42050:1,2012-07-04T19:30:00Z,28.8425,-94.2433,2.0,31.3414,11111222 
TABS,ioos:station:wmo:42050:1,2012-07-04T20:00:00Z,28.8425,-94.2433,2.0,31.3389,11111222 
TABS,ioos:station:wmo:42050:1,2012-07-04T20:30:00Z,28.8425,-94.2433,2.0,31.3449,11111222 
TABS,ioos:station:wmo:42050:1,2012-07-04T21:00:00Z,28.8425,-94.2433,2.0,31.3518,11111222 
TABS,ioos:station:wmo:42050:1,2012-07-04T21:30:00Z,28.8425,-94.2433,2.0,31.3561,11111222 
TABS,ioos:station:wmo:42050:1,2012-07-04T22:00:00Z,28.8425,-94.2433,2.0,31.3568,11111222 
TABS,ioos:station:wmo:42050:1,2012-07-04T22:30:00Z,28.8425,-94.2433,2.0,31.3591,11111222 
TABS,ioos:station:wmo:42050:1,2012-07-04T23:00:00Z,28.8425,-94.2433,2.0,31.3611,11111222 
TABS,ioos:station:wmo:42050:1,2012-07-04T23:30:00Z,28.8425,-94.2433,2.0,31.361,11111222 
TABS,ioos:station:wmo:42050:1,2012-07-05T00:00:00Z,28.8425,-94.2433,2.0,31.3573,11111222 
TABS,ioos:station:wmo:42050:1,2012-07-05T00:30:00Z,28.8425,-94.2433,2.0,31.3512,11111222 
TABS,ioos:station:wmo:42050:1,2012-07-05T01:00:00Z,28.8425,-94.2433,2.0,31.348,11111222 
TABS,ioos:station:wmo:42050:1,2012-07-05T01:30:00Z,28.8425,-94.2433,2.0,31.3449,11111222 
TABS,ioos:station:wmo:42050:1,2012-07-05T02:00:00Z,28.8425,-94.2433,2.0,31.3421,11111222 
TABS,ioos:station:wmo:42050:1,2012-07-05T02:30:00Z,28.8425,-94.2433,2.0,31.3399,11111222 
TABS,ioos:station:wmo:42050:1,2012-07-05T03:00:00Z,28.8425,-94.2433,2.0,31.3411,11111222 
TABS,ioos:station:wmo:42050:1,2012-07-05T03:30:00Z,28.8425,-94.2433,2.0,31.3375,11111222 
TABS,ioos:station:wmo:42050:1,2012-07-05T04:00:00Z,28.8425,-94.2433,2.0,31.3343,11111222 
TABS,ioos:station:wmo:42050:1,2012-07-05T04:30:00Z,28.8425,-94.2433,2.0,31.335,11111222 
TABS,ioos:station:wmo:42050:1,2012-07-05T05:00:00Z,28.8425,-94.2433,2.0,31.3339,11111222 
TABS,ioos:station:wmo:42050:1,2012-07-05T05:30:00Z,28.8425,-94.2433,2.0,31.3356,11111222 
TABS,ioos:station:wmo:42050:1,2012-07-05T06:00:00Z,28.8425,-94.2433,2.0,31.3361,11111222 
TABS,ioos:station:wmo:42050:1,2012-07-05T06:30:00Z,28.8425,-94.2433,2.0,31.3337,11111222 
TABS,ioos:station:wmo:42050:1,2012-07-05T07:00:00Z,28.8425,-94.2433,2.0,31.3309,11111222 
TABS,ioos:station:wmo:42050:1,2012-07-05T07:30:00Z,28.8425,-94.2433,2.0,31.3311,11111222 
TABS,ioos:station:wmo:42050:1,2012-07-05T08:00:00Z,28.8425,-94.2433,2.0,31.329,11111222 
TABS,ioos:station:wmo:42050:1,2012-07-05T08:30:00Z,28.8425,-94.2433,2.0,31.3252,11111222 
TABS,ioos:station:wmo:42050:1,2012-07-05T09:00:00Z,28.8425,-94.2433,2.0,31.3233,11111222 
TABS,ioos:station:wmo:42050:1,2012-07-05T09:30:00Z,28.8425,-94.2433,2.0,31.3202,11111222 
TABS,ioos:station:wmo:42050:1,2012-07-05T10:00:00Z,28.8425,-94.2433,2.0,31.3211,11111222 
TABS,ioos:station:wmo:42050:1,2012-07-05T10:30:00Z,28.8425,-94.2433,2.0,31.3224,11111222 
TABS,ioos:station:wmo:42050:1,2012-07-05T11:00:00Z,28.8425,-94.2433,2.0,31.3237,11111222 
TABS,ioos:station:wmo:42050:1,2012-07-05T11:30:00Z,28.8425,-94.2433,2.0,31.3393,11111222 
TABS,ioos:station:wmo:42050:1,2012-07-05T12:00:00Z,28.8425,-94.2433,2.0,31.3538,11111222 
TABS,ioos:station:wmo:42050:1,2012-07-05T12:30:00Z,28.8425,-94.2433,2.0,31.377,11111222 
TABS,ioos:station:wmo:42050:1,2012-07-05T13:00:00Z,28.8425,-94.2433,2.0,31.4019,11111222 
TABS,ioos:station:wmo:42050:1,2012-07-05T13:30:00Z,28.8425,-94.2433,2.0,31.4534,11111222 
TABS,ioos:station:wmo:42050:1,2012-07-05T14:00:00Z,28.8425,-94.2433,2.0,31.4704,11111222 
TABS,ioos:station:wmo:42050:1,2012-07-05T14:30:00Z,28.8425,-94.2433,2.0,31.4998,11111222 
TABS,ioos:station:wmo:42050:1,2012-07-05T15:00:00Z,28.8425,-94.2433,2.0,31.5225,11111222 
TABS,ioos:station:wmo:42050:1,2012-07-05T15:30:00Z,28.8425,-94.2433,2.0,31.5074,11111222 
TABS,ioos:station:wmo:42050:1,2012-07-05T16:00:00Z,28.8425,-94.2433,2.0,31.4828,11111222 
TABS,ioos:station:wmo:42050:1,2012-07-05T16:30:00Z,28.8425,-94.2433,2.0,31.4704,11111222 
TABS,ioos:station:wmo:42050:1,2012-07-05T17:00:00Z,28.8425,-94.2433,2.0,31.4631,11111222 
TABS,ioos:station:wmo:42050:1,2012-07-05T17:30:00Z,28.8425,-94.2433,2.0,31.4702,11111222 
TABS,ioos:station:wmo:42050:1,2012-07-05T18:00:00Z,28.8425,-94.2433,2.0,31.4672,11111222 
TABS,ioos:station:wmo:42050:1,2012-07-05T18:30:00Z,28.8425,-94.2433,2.0,31.4562,11111222 
TABS,ioos:station:wmo:42050:1,2012-07-05T19:00:00Z,28.8425,-94.2433,2.0,31.4646,11111222 
TABS,ioos:station:wmo:42050:1,2012-07-05T19:30:00Z,28.8425,-94.2433,2.0,31.47,11111222 
TABS,ioos:station:wmo:42050:1,2012-07-05T20:00:00Z,28.8425,-94.2433,2.0,31.4801,11111222 
TABS,ioos:station:wmo:42050:1,2012-07-05T20:30:00Z,28.8425,-94.2433,2.0,31.543,11111222 
TABS,ioos:station:wmo:42050:1,2012-07-05T21:00:00Z,28.8425,-94.2433,2.0,31.6052,11111222 
TABS,ioos:station:wmo:42050:1,2012-07-05T21:30:00Z,28.8425,-94.2433,2.0,31.5793,11111222 
TABS,ioos:station:wmo:42050:1,2012-07-05T22:00:00Z,28.8425,-94.2433,2.0,31.5608,11111222 
TABS,ioos:station:wmo:42050:1,2012-07-05T22:30:00Z,28.8425,-94.2433,2.0,31.6562,11111222 
TABS,ioos:station:wmo:42050:1,2012-07-05T23:00:00Z,28.8425,-94.2433,2.0,31.6979,11111222 
TABS,ioos:station:wmo:42050:1,2012-07-05T23:30:00Z,28.8425,-94.2433,2.0,31.7295,11111222 
TABS,ioos:station:wmo:42050:1,2012-07-06T00:00:00Z,28.8425,-94.2433,2.0,31.6859,11111222 
TABS,ioos:station:wmo:42050:1,2012-07-06T00:30:00Z,28.8425,-94.2433,2.0,31.7117,11111222 
TABS,ioos:station:wmo:42050:1,2012-07-06T01:00:00Z,28.8425,-94.2433,2.0,31.761,11111222 
TABS,ioos:station:wmo:42050:1,2012-07-06T01:30:00Z,28.8425,-94.2433,2.0,31.8159,11111222 
TABS,ioos:station:wmo:42050:1,2012-07-06T02:00:00Z,28.8425,-94.2433,2.0,31.8493,11111222 
TABS,ioos:station:wmo:42050:1,2012-07-06T02:30:00Z,28.8425,-94.2433,2.0,31.8745,11111222 
TABS,ioos:station:wmo:42050:1,2012-07-06T03:00:00Z,28.8425,-94.2433,2.0,31.8909,11111222 
TABS,ioos:station:wmo:42050:1,2012-07-06T03:30:00Z,28.8425,-94.2433,2.0,31.8909,11111222 
TABS,ioos:station:wmo:42050:1,2012-07-06T04:00:00Z,28.8425,-94.2433,2.0,31.857,11111222 
TABS,ioos:station:wmo:42050:1,2012-07-06T04:30:00Z,28.8425,-94.2433,2.0,31.7913,11111222 
TABS,ioos:station:wmo:42050:1,2012-07-06T05:00:00Z,28.8425,-94.2433,2.0,31.6763,11111222 
TABS,ioos:station:wmo:42050:1,2012-07-06T05:30:00Z,28.8425,-94.2433,2.0,31.6017,11111222 
TABS,ioos:station:wmo:42050:1,2012-07-06T06:00:00Z,28.8425,-94.2433,2.0,31.5688,11111222 
TABS,ioos:station:wmo:42050:1,2012-07-06T06:30:00Z,28.8425,-94.2433,2.0,31.5211,11111222 
TABS,ioos:station:wmo:42050:1,2012-07-06T07:00:00Z,28.8425,-94.2433,2.0,31.4938,11111222 
TABS,ioos:station:wmo:42050:1,2012-07-06T07:30:00Z,28.8425,-94.2433,2.0,31.4762,11111222 
TABS,ioos:station:wmo:42050:1,2012-07-06T08:00:00Z,28.8425,-94.2433,2.0,31.4499,11111222 
TABS,ioos:station:wmo:42050:1,2012-07-06T08:30:00Z,28.8425,-94.2433,2.0,31.4194,11111222 
TABS,ioos:station:wmo:42050:1,2012-07-06T09:00:00Z,28.8425,-94.2433,2.0,31.4265,11111222 
TABS,ioos:station:wmo:42050:1,2012-07-06T09:30:00Z,28.8425,-94.2433,2.0,31.4333,11111222 
TABS,ioos:station:wmo:42050:1,2012-07-06T10:00:00Z,28.8425,-94.2433,2.0,31.436,11111222 
TABS,ioos:station:wmo:42050:1,2012-07-06T10:30:00Z,28.8425,-94.2433,2.0,31.4334,11111222 
TABS,ioos:station:wmo:42050:1,2012-07-06T11:00:00Z,28.8425,-94.2433,2.0,31.4246,11111222 
TABS,ioos:station:wmo:42050:1,2012-07-06T11:30:00Z,28.8425,-94.2433,2.0,31.4328,11111222 
TABS,ioos:station:wmo:42050:1,2012-07-06T12:00:00Z,28.8425,-94.2433,2.0,31.4361,11111222 
TABS,ioos:station:wmo:42050:1,2012-07-06T12:30:00Z,28.8425,-94.2433,2.0,31.4469,11111222 